Temp
7 7 8 8 8 8 8 9 9 8 8 7 7 7 8 7 7 7 7 6 6 6 5 5 4 4 4 4 3 3 2 2 1 0 1 0 0 1 1 0 -0 -1 -1 -1
7 8 8 8 8 8 8 8 8 8 8 8 8 8 8 8 8 7 7 7 6 6 6 5 5 4 4 4 3 3 3 3 2 1 1 1 0 -0 -1 -1 -1 -1 -1 -1
8 8 8 8 8 8 7 8 8 8 8 7 7 7 8 8 8 8 8 7 7 6 6 5 5 4 4 4 3 3 2 2 1 1 0 -0 -1 -1 -1 -2 -2 -2 -2 -2
7 8 8 8 8 8 8 8 8 8 8 9 8 10 7 8 8 8 8 7 6 6 6 5 5 4 4 3 3 2 1 1 1 0 -1 -1 -2 -2 -2 -2 -2 -2 -2 -3
7 7 7 7 7 7 7 7 7 7 8 8 7 8 9 8 8 8 8 7 6 6 6 5 4 3 4 3 2 1 2 1 1 0 -1 -1 -2 -2 -2 -2 -2 -3 -3 -4
7 7 7 7 7 7 7 7 6 6 7 8 8 7 10 9 6 6 7 6 6 6 5 4 4 3 3 2 2 2 1 1 0 -0 -1 -1 -2 -2 -2 -3 -3 -3 -4 -4
6 6 7 7 6 6 6 7 8 8 8 8 5 6 8 7 7 6 6 6 6 5 4 4 3 3 2 2 2 1 1 0 -1 -1 -1 -1 -2 -2 -3 -3 -3 -4 -4 -5
7 6 6 6 6 7 6 7 7 7 7 8 4 7 8 6 6 6 6 5 5 4 4 3 3 2 2 2 1 1 0 -0 -1 -1 -2 -2 -2 -3 -3 -3 -4 -4 -5 -5
7 6 6 6 6 6 6 6 6 5 4 5 8 6 6 6 6 6 5 5 4 4 3 3 2 2 2 1 1 0 -0 -1 -1 -2 -2 -2 -3 -3 -4 -4 -5 -5 -5 -6
7 6 6 6 6 5 5 5 5 5 5 6 8 7 8 6 5 5 5 5 4 3 3 2 2 2 2 1 1 -0 -1 -1 -1 -2 -2 -3 -3 -4 -5 -5 -5 -5 -6 -7
6 7 5 5 5 6 5 5 5 5 5 7 7 9 6 6 6 5 4 4 3 3 2 2 2 2 1 1 0 -1 -1 -2 -2 -2 -3 -3 -4 -5 -5 -5 -6 -6 -7 -7
6 6 5 5 5 5 5 5 5 6 5 3 4 7 6 6 6 5 4 3 3 3 2 2 2 2 1 1 -0 -1 -1 -2 -2 -3 -3 -4 -5 -5 -6 -6 -7 -7 -7 -8
5 5 5 5 4 4 4 4 4 5 5 4 4 7 6 6 6 5 4 4 3 3 2 2 2 1 1 0 -1 -1 -2 -2 -2 -3 -5 -5 -6 -6 -6 -7 -7 -7 -8 -9
5 5 5 6 7 6 4 5 5 4 4 5 5 7 6 6 5 4 4 3 3 2 2 2 1 1 0 -0 -1 -1 -2 -3 -4 -4 -5 -6 -6 -6 -6 -7 -7 -8 -9 -10
5 4 5 5 5 5 5 5 4 4 5 4 6 5 6 4 5 4 4 3 3 2 2 1 1 1 -0 -1 -1 -2 -3 -4 -4 -5 -6 -6 -6 -6 -7 -7 -8 -9 -10 -10
4 4 4 4 5 5 5 5 4 4 4 4 5 5 5 5 4 4 4 3 3 2 1 1 0 -0 -1 -2 -2 -3 -3 -4 -5 -6 -6 -6 -6 -7 -7 -8 -9 -10 -10 -11
4 4 4 3 4 4 3 5 5 5 6 6 4 6 4 5 4 4 3 3 2 2 1 1 -0 -1 -2 -2 -3 -3 -4 -5 -6 -7 -6 -6 -7 -8 -8 -9 -10 -10 -11 -11
4 4 4 3 3 2 5 5 6 5 6 5 6 5 5 4 3 2 2 2 2 1 1 0 -1 -2 -3 -3 -3 -4 -5 -6 -7 -7 -7 -7 -8 -8 -9 -10 -10 -11 -11 -12
3 3 3 3 2 4 5 5 5 5 5 5 4 4 4 4 2 2 1 1 1 1 -0 -1 -2 -3 -3 -3 -4 -4 -6 -8 -7 -7 -7 -8 -8 -9 -9 -10 -11 -12 -12 -12
3 3 2 2 2 2 4 5 4 4 3 3 3 3 3 2 2 1 1 1 0 -0 -1 -2 -3 -3 -3 -3 -4 -6 -8 -8 -8 -8 -8 -9 -9 -9 -10 -11 -12 -12 -13 -13
2 2 2 2 1 3 4 3 2 2 2 2 2 2 1 1 1 1 0 -1 -1 -2 -2 -3 -4 -4 -3 -4 -6 -8 -9 -9 -9 -8 -9 -9 -9 -10 -11 -12 -12 -13 -13 -13
3 3 3 2 1 2 3 2 1 1 1 1 1 0 0 -0 -1 -1 -2 -2 -2 -3 -3 -3 -4 -4 -4 -6 -8 -10 -10 -10 -8 -9 -9 -9 -10 -11 -12 -12 -13 -13 -13 -13
2 2 3 2 2 2 2 1 1 1 1 1 0 -1 -1 -1 -1 -2 -2 -2 -3 -3 -3 -3 -4 -5 -5 -7 -10 -10 -10 -9 -9 -9 -9 -10 -10 -11 -12 -13 -13 -13 -14 -14
2 2 2 2 2 1 0 0 0 -0 -0 -0 -1 -1 -1 -1 -1 -2 -2 -3 -3 -3 -3 -4 -4 -7 -7 -10 -10 -10 -9 -9 -9 -9 -10 -10 -11 -12 -13 -13 -13 -14 -14 -14
1 1 1 1 1 0 0 -0 -1 -1 -1 -1 -1 -1 -2 -2 -2 -3 -3 -3 -4 -4 -4 -5 -7 -9 -11 -10 -11 -10 -9 -9 -10 -10 -10 -11 -12 -13 -13 -13 -14 -14 -14 -14
1 0 -0 -0 0 -0 -1 -1 -1 -1 -1 -1 -2 -2 -2 -3 -3 -3 -4 -4 -5 -4 -6 -7 -10 -10 -11 -12 -11 -10 -10 -10 -10 -11 -11 -12 -13 -13 -13 -13 -14 -14 -14 -15
Height
3133 3133 3133 3135 3136 3136 3137 3139 3140 3143 3145 3148 3148 3149 3150 3152 3153 3154 3155 3157 3158 3159 3160 3161 3164 3165 3166 3166 3166 3166 3165 3163 3156 3161 3155 3160 3161 3160 3159 3157 3157 3156 3153 3148
3134 3133 3133 3134 3135 3137 3137 3140 3141 3141 3143 3145 3145 3146 3148 3149 3150 3151 3152 3154 3155 3156 3158 3159 3161 3162 3163 3162 3161 3160 3160 3159 3157 3158 3158 3159 3159 3157 3154 3153 3152 3149 3146 3143
3131 3132 3133 3134 3136 3137 3137 3138 3138 3140 3140 3142 3144 3145 3144 3145 3146 3147 3148 3149 3151 3153 3154 3156 3157 3158 3158 3157 3157 3157 3156 3156 3157 3157 3156 3155 3153 3151 3150 3148 3145 3142 3138 3134
3131 3131 3133 3134 3135 3137 3137 3137 3138 3139 3141 3139 3142 3138 3139 3141 3142 3143 3144 3145 3147 3148 3150 3152 3152 3153 3154 3155 3154 3153 3154 3154 3153 3151 3149 3148 3147 3145 3143 3140 3137 3133 3130 3127
3132 3131 3133 3135 3135 3135 3136 3136 3137 3139 3140 3140 3140 3141 3135 3137 3138 3139 3140 3140 3142 3144 3146 3148 3149 3150 3151 3151 3151 3152 3151 3149 3148 3146 3145 3144 3142 3140 3137 3135 3131 3128 3124 3120
3129 3130 3132 3132 3133 3134 3135 3136 3136 3137 3138 3136 3135 3138 3131 3133 3135 3132 3133 3135 3138 3140 3142 3144 3146 3147 3148 3149 3149 3148 3147 3145 3144 3143 3141 3140 3137 3135 3132 3129 3125 3120 3116 3110
3129 3129 3130 3131 3133 3133 3134 3135 3134 3136 3135 3132 3132 3134 3130 3129 3130 3130 3129 3132 3134 3136 3139 3141 3143 3144 3145 3145 3144 3143 3143 3142 3140 3139 3137 3134 3131 3129 3126 3122 3117 3113 3107 3101
3126 3130 3129 3129 3132 3133 3133 3134 3134 3133 3131 3130 3132 3128 3126 3125 3126 3127 3127 3129 3132 3134 3136 3138 3139 3141 3141 3141 3140 3139 3137 3136 3134 3133 3130 3127 3125 3122 3118 3113 3109 3103 3096 3091
3125 3126 3126 3127 3128 3131 3130 3133 3133 3134 3133 3133 3127 3126 3124 3123 3124 3124 3125 3126 3129 3131 3133 3135 3136 3137 3137 3136 3136 3135 3133 3131 3129 3126 3124 3121 3118 3114 3110 3105 3099 3094 3088 3082
3121 3125 3124 3125 3127 3129 3130 3131 3133 3133 3132 3127 3122 3123 3121 3121 3121 3122 3123 3124 3127 3129 3131 3132 3133 3133 3133 3132 3130 3129 3127 3125 3123 3120 3116 3113 3110 3106 3101 3096 3091 3085 3079 3073
3120 3123 3125 3125 3125 3127 3128 3128 3129 3129 3129 3125 3123 3119 3119 3119 3120 3120 3121 3123 3124 3125 3127 3128 3129 3128 3127 3126 3124 3123 3120 3118 3116 3112 3108 3105 3102 3098 3092 3088 3082 3076 3071 3065
3118 3120 3121 3123 3122 3123 3123 3125 3126 3126 3127 3125 3125 3121 3118 3118 3119 3119 3119 3120 3121 3121 3122 3122 3123 3122 3121 3119 3117 3115 3112 3110 3107 3105 3101 3097 3094 3089 3085 3080 3074 3068 3062 3055
3115 3117 3119 3120 3122 3120 3120 3120 3121 3122 3123 3122 3123 3119 3116 3116 3116 3116 3116 3116 3117 3117 3117 3117 3116 3115 3113 3112 3110 3108 3106 3103 3101 3097 3093 3090 3085 3081 3077 3072 3067 3059 3052 3045
3112 3113 3114 3114 3114 3115 3115 3115 3116 3119 3119 3117 3115 3115 3113 3113 3112 3112 3112 3111 3111 3111 3111 3111 3110 3108 3107 3105 3104 3101 3099 3096 3094 3090 3086 3082 3078 3074 3069 3063 3057 3050 3043 3037
3109 3110 3110 3110 3111 3111 3112 3112 3111 3113 3114 3113 3111 3110 3111 3109 3107 3106 3106 3106 3105 3105 3105 3104 3104 3102 3101 3098 3097 3095 3092 3089 3086 3083 3079 3075 3071 3066 3060 3054 3048 3041 3035 3030
3105 3106 3106 3107 3107 3107 3107 3107 3107 3108 3108 3106 3106 3103 3104 3102 3101 3101 3100 3099 3098 3098 3098 3098 3097 3095 3093 3091 3089 3087 3084 3082 3078 3074 3071 3067 3063 3057 3051 3045 3039 3033 3028 3022
3102 3102 3104 3104 3104 3104 3103 3100 3101 3101 3101 3101 3100 3100 3097 3095 3095 3094 3093 3093 3092 3092 3091 3090 3089 3088 3086 3084 3082 3079 3077 3073 3070 3068 3064 3059 3054 3049 3043 3037 3032 3026 3020 3015
3098 3100 3102 3101 3102 3103 3097 3096 3096 3096 3096 3095 3094 3094 3092 3090 3089 3088 3088 3087 3087 3086 3085 3083 3082 3081 3079 3076 3074 3071 3068 3065 3063 3060 3056 3051 3045 3040 3035 3029 3024 3019 3013 3007
3096 3097 3099 3099 3099 3096 3094 3093 3093 3092 3093 3091 3089 3088 3086 3084 3084 3084 3083 3082 3081 3080 3078 3076 3075 3073 3071 3069 3066 3062 3060 3058 3055 3052 3048 3043 3037 3032 3027 3022 3016 3011 3006 3000
3093 3094 3097 3096 3097 3094 3091 3090 3089 3088 3088 3086 3085 3084 3082 3082 3081 3083 3078 3077 3075 3073 3071 3069 3068 3066 3064 3060 3057 3054 3051 3051 3048 3045 3040 3034 3030 3025 3019 3013 3008 3003 2998 2993
3089 3091 3092 3092 3092 3089 3087 3086 3085 3087 3090 3083 3082 3081 3079 3079 3078 3075 3072 3070 3068 3066 3064 3063 3061 3058 3055 3052 3047 3044 3044 3043 3041 3037 3031 3027 3022 3017 3011 3006 2999 2994 2989 2984
3087 3087 3087 3088 3088 3087 3083 3084 3086 3084 3081 3079 3078 3076 3075 3072 3070 3068 3066 3063 3061 3059 3057 3055 3052 3049 3046 3041 3039 3040 3038 3036 3032 3027 3023 3019 3014 3008 3002 2997 2992 2987 2982 2976
3084 3084 3084 3086 3084 3082 3081 3080 3079 3077 3075 3074 3072 3070 3068 3066 3064 3062 3059 3057 3054 3053 3049 3045 3043 3040 3036 3033 3034 3032 3030 3028 3023 3019 3015 3010 3004 2999 2995 2989 2984 2979 2974 2970
3078 3079 3078 3079 3079 3078 3076 3074 3072 3070 3069 3067 3065 3064 3062 3059 3056 3054 3051 3048 3046 3043 3039 3037 3032 3029 3027 3025 3026 3026 3023 3020 3016 3012 3007 3001 2996 2992 2987 2982 2977 2971 2967 2963
3076 3075 3074 3073 3073 3071 3071 3068 3066 3064 3061 3060 3058 3056 3054 3051 3048 3045 3042 3040 3037 3035 3031 3026 3023 3022 3023 3020 3019 3017 3015 3012 3008 3004 2999 2994 2990 2984 2978 2974 2970 2965 2960 2957
3070 3069 3069 3068 3067 3066 3065 3061 3059 3057 3054 3051 3049 3047 3045 3042 3040 3037 3035 3032 3029 3024 3020 3018 3016 3016 3016 3015 3014 3011 3009 3006 3001 2997 2992 2987 2982 2977 2972 2966 2962 2959 2955 2950
Wind_Speed
10 6 11 16 11 2 7 8 10 10 16 12 11 11 8 9 15 18 18 18 17 16 14 17 19 19 19 21 22 23 26 24 25 14 9 2 3 6 8 12 16 20 25 27
8 9 13 13 9 6 8 9 8 15 14 13 12 11 14 10 12 18 23 22 21 19 17 16 17 18 21 23 25 24 15 9 5 5 7 4 7 8 10 14 19 24 28 28
7 9 9 8 7 6 6 5 5 6 19 17 11 12 17 16 13 13 17 26 25 22 21 19 19 20 21 20 17 15 6 2 3 10 15 12 10 13 16 20 25 28 30 33
7 9 9 9 7 8 6 6 5 5 11 10 17 12 15 19 16 14 17 24 27 24 20 19 17 14 12 12 12 3 2 12 17 16 13 12 16 20 23 27 31 33 34 36
9 12 11 8 7 7 5 5 5 6 8 6 9 11 7 11 16 18 20 21 26 23 19 15 13 12 10 11 10 8 11 21 16 13 15 19 21 24 27 31 34 34 36 37
13 13 11 8 7 6 5 5 4 5 5 10 10 10 15 12 12 19 20 20 21 19 15 13 14 12 9 7 11 16 19 15 15 17 21 23 27 27 31 34 36 37 38 38
11 11 10 7 5 5 6 6 4 4 5 6 4 8 18 12 11 12 13 18 18 16 15 15 13 6 6 11 13 9 11 16 19 21 24 29 29 32 34 38 36 37 38 41
14 7 8 8 9 5 7 7 5 4 3 2 4 7 3 7 10 15 12 13 17 17 17 15 10 9 11 12 11 13 16 18 22 25 28 29 32 34 37 35 37 39 41 43
11 6 10 7 7 7 6 6 9 3 5 3 7 8 12 14 11 9 16 19 19 18 18 15 13 13 12 14 16 18 21 24 26 30 32 29 33 37 35 35 38 40 42 44
10 4 8 8 8 10 9 6 3 6 3 4 4 7 4 4 4 9 14 17 19 20 20 18 16 16 16 18 20 23 25 28 33 31 35 38 37 34 34 37 39 41 42 43
9 9 6 10 9 9 13 11 9 5 3 2 3 1 2 2 3 4 5 12 18 20 21 21 19 18 21 23 25 26 28 30 33 36 41 39 33 33 35 37 39 41 42 43
13 9 7 10 12 13 14 11 12 8 5 5 2 5 3 1 5 7 10 13 19 22 23 24 23 23 25 27 28 29 32 37 36 36 40 32 31 33 35 37 39 41 43 44
15 10 8 4 9 13 13 16 16 15 10 9 4 4 6 9 12 9 11 18 20 21 23 26 26 28 30 31 30 34 38 35 36 37 30 30 33 34 36 38 40 42 43 43
13 16 14 17 9 7 10 21 21 16 9 10 15 14 16 17 14 13 12 16 20 24 27 29 31 32 33 33 35 37 34 34 34 29 31 32 34 35 38 40 41 42 42 42
14 12 20 21 17 15 15 13 17 22 21 14 18 17 15 15 19 18 18 17 20 23 25 28 31 32 33 34 35 34 33 32 31 30 30 32 35 37 40 41 41 41 40 41
17 12 16 18 20 20 20 20 19 19 20 25 24 27 21 22 17 18 17 17 18 21 24 26 30 31 33 33 35 33 31 32 31 30 30 33 36 38 39 39 40 40 40 40
18 18 13 8 14 15 16 24 26 26 27 27 23 22 22 25 21 19 19 18 17 18 20 24 28 30 31 34 34 31 32 28 28 28 31 34 36 38 38 39 39 40 39 39
14 16 12 6 4 3 12 14 14 17 17 20 21 23 26 26 21 19 18 17 15 18 21 24 26 28 31 34 33 33 30 26 26 29 32 35 37 38 38 39 39 39 38 37
13 12 7 5 7 12 16 16 16 15 15 18 20 21 21 17 15 18 17 17 20 21 21 23 25 28 32 35 32 33 26 23 27 30 34 36 37 38 39 39 39 37 36 36
15 14 12 7 4 4 5 9 12 15 11 5 7 10 11 12 15 11 19 24 23 21 20 22 25 30 34 35 36 28 18 23 27 33 35 35 37 39 39 39 37 36 35 35
11 13 16 15 9 7 12 13 11 3 4 14 20 16 13 13 17 24 27 24 22 22 19 19 26 33 38 39 28 16 19 24 30 34 33 35 38 39 38 37 36 35 34 33
7 6 7 7 6 5 1 4 6 11 19 18 17 16 19 21 26 26 25 26 24 24 25 26 28 35 40 27 17 16 22 27 31 32 34 37 38 38 37 35 34 33 32 31
9 11 8 7 4 11 16 13 16 21 23 22 20 20 24 25 27 27 27 29 29 29 35 36 33 34 37 22 14 20 23 28 29 31 34 37 38 36 33 32 32 31 31 30
11 12 14 14 13 13 19 19 21 22 23 22 23 25 27 30 33 32 31 30 32 34 36 34 38 29 25 15 18 20 25 27 29 31 34 36 34 33 32 33 32 31 30 29
13 16 17 18 16 17 19 21 24 24 25 27 28 27 28 29 31 32 32 31 31 35 39 35 28 13 12 16 17 21 24 26 28 31 33 33 32 32 31 31 30 29 28 27
17 17 16 19 19 22 23 25 26 25 25 25 26 27 27 27 27 28 29 30 32 38 35 27 13 11 12 16 19 22 24 26 29 31 31 32 31 31 31 30 29 29 26 25
Wind_Direction
194 182 185 174 192 184 177 162 152 161 182 179 202 199 185 201 196 199 207 211 212 211 210 211 214 221 233 250 264 269 272 282 285 299 36 185 276 291 302 293 295 301 307 306
187 183 183 174 196 213 182 175 172 186 184 187 203 208 219 222 219 215 215 217 223 227 228 234 239 243 251 259 266 276 288 298 328 317 323 307 279 290 300 299 305 310 313 306
197 186 187 184 189 176 159 165 150 184 197 203 204 222 225 230 236 243 234 224 224 230 236 242 251 256 257 261 267 277 257 296 323 305 302 295 294 303 306 310 313 312 312 310
202 208 191 182 182 164 167 164 156 156 173 199 207 240 212 238 242 243 243 230 228 233 243 251 257 240 227 246 255 239 338 318 301 306 305 306 311 315 316 318 317 315 312 309
193 178 174 165 190 183 198 167 186 195 219 235 221 248 211 246 251 256 246 234 228 233 242 244 220 208 232 242 226 287 280 313 306 300 297 305 310 309 312 315 313 310 308 308
186 182 180 196 189 195 189 181 208 234 242 249 246 251 271 255 256 256 248 234 230 234 232 214 206 211 237 237 268 285 292 293 295 290 294 303 307 303 306 311 310 308 309 310
171 181 190 194 176 194 194 200 241 238 224 257 254 264 259 262 246 260 255 243 232 222 212 207 207 221 250 277 289 291 287 286 288 289 298 302 303 302 304 309 306 308 309 315
187 177 189 205 197 215 205 216 233 262 230 256 234 244 250 253 251 245 226 217 220 213 208 207 219 234 272 278 280 283 282 282 281 281 291 291 300 303 309 308 308 313 316 316
192 186 202 215 227 199 234 217 225 234 268 280 252 262 268 261 255 246 219 215 215 214 213 216 227 254 270 269 269 271 273 275 274 275 283 297 301 310 308 308 313 314 316 319
205 168 209 227 223 224 212 229 206 215 233 243 209 261 243 259 248 235 225 226 218 217 220 226 239 256 268 270 269 268 273 275 283 276 297 304 308 309 308 313 315 317 319 318
219 226 222 219 221 227 219 224 218 214 213 279 294 115 195 274 273 243 243 240 230 233 234 237 248 264 268 269 268 269 273 276 279 283 295 306 311 306 312 314 317 318 317 317
222 218 205 213 232 227 218 223 215 227 209 218 247 287 245 312 325 273 239 233 237 243 240 245 257 268 269 270 268 272 276 282 275 291 303 310 306 313 313 318 319 317 317 319
220 215 212 209 240 234 225 228 222 228 241 226 202 262 256 292 308 287 249 242 237 240 244 252 262 274 274 273 265 270 273 275 290 302 309 308 311 313 317 317 317 319 320 323
220 223 227 239 250 209 223 239 234 226 223 239 242 269 278 286 289 286 269 251 243 244 248 256 263 272 272 266 267 273 273 292 301 308 309 308 311 314 315 317 320 321 323 324
226 233 236 242 252 261 259 254 241 230 242 234 270 270 276 264 282 281 276 267 250 246 251 259 266 269 265 262 270 272 288 297 304 303 304 308 312 314 317 319 319 321 323 322
233 236 242 248 251 254 256 253 248 247 243 255 263 275 284 284 278 276 275 268 262 253 255 260 264 266 263 265 272 281 292 300 297 302 306 309 312 314 316 318 320 322 321 321
232 232 238 248 256 258 268 258 254 258 264 268 259 289 276 289 286 278 275 275 272 259 259 263 266 265 262 266 274 283 292 295 299 303 307 310 312 314 317 319 320 320 321 320
227 230 230 255 244 224 259 269 265 262 275 274 283 283 287 286 282 275 282 283 275 282 278 271 265 262 261 268 278 286 290 290 299 305 309 311 313 316 317 317 317 318 319 317
221 222 220 224 220 272 281 273 280 280 285 287 288 287 285 285 277 282 277 279 291 289 274 266 259 259 265 274 281 288 280 297 304 310 311 312 314 315 315 315 315 316 316 316
223 222 221 217 228 252 278 272 273 293 305 313 336 327 315 298 284 274 285 297 299 285 276 271 262 258 268 268 275 270 293 304 310 308 309 313 314 313 313 313 314 315 315 315
207 226 231 241 244 261 270 279 289 279 299 309 311 306 298 296 286 291 296 298 293 290 287 283 268 265 264 270 259 283 304 305 306 306 312 313 313 312 313 312 313 314 314 314
228 226 222 230 229 268 256 333 320 293 297 301 303 287 286 287 296 299 299 300 299 292 285 277 272 279 269 254 272 302 300 305 304 311 313 312 313 313 313 312 313 312 312 313
248 242 250 237 249 285 297 299 293 290 290 292 284 274 275 282 290 291 291 292 287 288 285 276 275 272 262 262 300 293 303 304 310 313 314 314 315 315 313 314 313 311 312 313
268 274 267 281 291 293 295 292 292 294 294 291 287 282 280 279 280 282 282 281 277 282 275 272 270 249 255 283 291 304 306 308 312 314 317 316 315 313 313 314 314 312 313 312
273 283 289 291 291 287 291 290 292 293 291 289 289 287 285 283 282 282 281 278 278 283 271 257 245 255 273 277 308 313 307 310 313 318 318 315 312 314 315 315 315 313 312 310
274 268 268 277 287 289 291 291 294 295 294 294 294 293 291 288 286 285 286 284 285 271 252 240 238 266 309 317 312 307 307 311 316 319 318 315 314 317 315 314 314 312 310 308